| time (UTC) | temp F | wind direction | speed MPH | gust MPH | rain 1hr in | rain 24hr in | rain mn in | humidity % | barometer mb |
| 20260506073240 | 56 | 346 | 4.0 | 7.0 | 0.00 | 0.00 | 0.00 | 79 | 1008.5 |
| 20260506072737 | 56 | 335 | 3.0 | 8.0 | 0.00 | 0.00 | 0.00 | 79 | 1008.5 |
| 20260506072235 | 56 | 320 | 4.0 | 8.0 | 0.00 | 0.00 | 0.00 | 79 | 1008.6 |
| 20260506071732 | 56 | 37 | 4.0 | 8.0 | 0.00 | 0.00 | 0.00 | 80 | 1008.6 |
| 20260506071230 | 57 | 333 | 4.0 | 6.0 | 0.00 | 0.00 | 0.00 | 80 | 1008.6 |
| 20260506070727 | 57 | 308 | 4.0 | 7.0 | 0.00 | 0.00 | 0.00 | 80 | 1008.3 |
| 20260506070224 | 57 | 335 | 2.0 | 9.0 | 0.00 | 0.00 | 0.00 | 79 | 1008.7 |
| 20260506062200 | 58 | 317 | 5.0 | 7.0 | 0.00 | 0.00 | 0.00 | 80 | 1008.5 |
| 20260506061656 | 58 | 328 | 7.0 | 9.0 | 0.00 | 0.00 | 0.00 | 80 | 1008.2 |
| 20260506061154 | 58 | 340 | 5.0 | 11.0 | 0.00 | 0.00 | 0.00 | 80 | 1008.6 |
| 20260506060653 | 58 | 354 | 4.0 | 8.0 | 0.00 | 0.00 | 0.00 | 80 | 1008.5 |
| 20260506060149 | 58 | 303 | 3.0 | 9.0 | 0.00 | 0.00 | 0.00 | 81 | 1008.4 |
| 20260506051121 | 60 | 322 | 4.0 | 9.0 | 0.00 | 0.00 | 0.00 | 82 | 1008.2 |
| 20260506050619 | 60 | 324 | 5.0 | 7.0 | 0.00 | 0.00 | 0.00 | 82 | 1008.2 |
| 20260506050116 | 60 | 315 | 5.0 | 7.0 | 0.00 | 0.00 | 0.00 | 82 | 1008.3 |
| 20260506045109 | 60 | 352 | 4.0 | 8.0 | 0.00 | 0.03 | 0.03 | 82 | 1008.2 |
| 20260506044607 | 60 | 305 | 4.0 | 9.0 | 0.00 | 0.03 | 0.03 | 82 | 1008.0 |
| 20260506044104 | 60 | 339 | 7.0 | 10.0 | 0.00 | 0.03 | 0.03 | 82 | 1008.1 |
| 20260506043601 | 60 | 323 | 6.0 | 8.0 | 0.00 | 0.03 | 0.03 | 82 | 1008.1 |
| 20260506043059 | 60 | 339 | 3.0 | 7.0 | 0.00 | 0.03 | 0.03 | 82 | 1008.0 |
| 20260506042558 | 60 | 349 | 5.0 | 9.0 | 0.00 | 0.03 | 0.03 | 81 | 1007.9 |
| 20260506042056 | 60 | 330 | 5.0 | 10.0 | 0.00 | 0.03 | 0.03 | 82 | 1007.8 |
| 20260506041554 | 60 | 357 | 6.0 | 11.0 | 0.00 | 0.03 | 0.03 | 82 | 1007.8 |
| 20260506041050 | 61 | 16 | 7.0 | 14.0 | 0.00 | 0.03 | 0.03 | 82 | 1008.1 |
| 20260506040549 | 61 | 344 | 10.0 | 13.0 | 0.00 | 0.03 | 0.03 | 82 | 1007.9 |
| 20260506040044 | 61 | 341 | 7.0 | 9.0 | 0.00 | 0.03 | 0.03 | 82 | 1007.6 |
| 20260506035542 | 62 | 315 | 9.0 | 13.0 | 0.00 | 0.03 | 0.03 | 81 | 1007.5 |
| 20260506035038 | 62 | 6 | 6.0 | 8.0 | 0.00 | 0.03 | 0.03 | 81 | 1007.3 |
| 20260506034536 | 63 | 302 | 3.0 | 14.0 | 0.00 | 0.03 | 0.03 | 82 | 1007.6 |
| 20260506034032 | 63 | 38 | 4.0 | 6.0 | 0.00 | 0.03 | 0.03 | 81 | 1007.2 |
| 20260506033530 | 64 | 24 | 4.0 | 9.0 | 0.00 | 0.03 | 0.03 | 80 | 1007.1 |
| 20260506033027 | 65 | 351 | 5.0 | 13.0 | 0.00 | 0.03 | 0.03 | 80 | 1007.0 |
| 20260506032524 | 66 | 14 | 4.0 | 8.0 | 0.00 | 0.03 | 0.03 | 80 | 1006.9 |
| 20260506032020 | 66 | 347 | 5.0 | 9.0 | 0.00 | 0.03 | 0.03 | 80 | 1006.9 |
| 20260506031518 | 67 | 355 | 9.0 | 13.0 | 0.00 | 0.03 | 0.03 | 80 | 1006.9 |
| 20260506031015 | 67 | 299 | 3.0 | 7.0 | 0.00 | 0.03 | 0.03 | 81 | 1006.9 |
| 20260506030513 | 67 | 328 | 6.0 | 9.0 | 0.00 | 0.03 | 0.03 | 80 | 1006.7 |
| 20260506030010 | 68 | 327 | 6.0 | 10.0 | 0.00 | 0.03 | 0.03 | 80 | 1006.5 |
| 20260506025507 | 68 | 34 | 4.0 | 11.0 | 0.00 | 0.03 | 0.03 | 81 | 1006.0 |
| 20260506025003 | 68 | 315 | 5.0 | 8.0 | 0.00 | 0.03 | 0.03 | 81 | 1006.0 |
| 20260506024500 | 68 | 326 | 3.0 | 7.0 | 0.00 | 0.03 | 0.03 | 81 | 1005.7 |
| 20260506023956 | 69 | 320 | 6.0 | 10.0 | 0.00 | 0.03 | 0.03 | 80 | 1005.7 |
| 20260506023453 | 69 | 336 | 6.0 | 15.0 | 0.00 | 0.03 | 0.03 | 80 | 1005.6 |
| 20260506022949 | 69 | 328 | 5.0 | 7.0 | 0.00 | 0.03 | 0.03 | 82 | 1005.6 |
| 20260506022447 | 70 | 304 | 1.0 | 3.0 | 0.00 | 0.03 | 0.03 | 82 | 1005.2 |
| 20260506021945 | 70 | 32 | 2.0 | 6.0 | 0.00 | 0.03 | 0.03 | 82 | 1005.0 |
| 20260506021442 | 71 | 320 | 2.0 | 3.0 | 0.00 | 0.03 | 0.03 | 81 | 1005.2 |
| 20260506020939 | 71 | 9 | 3.0 | 7.0 | 0.00 | 0.03 | 0.03 | 81 | 1005.3 |
| 20260506020437 | 71 | 340 | 2.0 | 7.0 | 0.00 | 0.03 | 0.03 | 81 | 1005.0 |
| 20260506015934 | 71 | 316 | 3.0 | 6.0 | 0.00 | 0.03 | 0.03 | 81 | 1005.4 |
| 20260506015431 | 72 | 354 | 3.0 | 4.0 | 0.00 | 0.03 | 0.03 | 80 | 1004.6 |
| 20260506014928 | 72 | 333 | 2.0 | 3.0 | 0.00 | 0.03 | 0.03 | 80 | 1004.8 |
| 20260506014425 | 72 | 329 | 2.0 | 3.0 | 0.00 | 0.03 | 0.03 | 81 | 1004.5 |
| 20260506013921 | 72 | 305 | 2.0 | 4.0 | 0.00 | 0.03 | 0.03 | 82 | 1005.1 |
| 20260506013420 | 73 | 244 | 2.0 | 3.0 | 0.00 | 0.03 | 0.03 | 81 | 1005.2 |
| 20260506012915 | 73 | 317 | 1.0 | 2.0 | 0.00 | 0.03 | 0.03 | 80 | 1004.7 |
| 20260506012412 | 73 | 305 | 0.0 | 1.0 | 0.00 | 0.03 | 0.03 | 80 | 1004.5 |
| 20260506011909 | 73 | 265 | 1.0 | 2.0 | 0.00 | 0.03 | 0.03 | 79 | 1004.5 |
| 20260506011406 | 73 | 296 | 2.0 | 3.0 | 0.00 | 0.03 | 0.03 | 78 | 1004.4 |
| 20260506010903 | 74 | 326 | 2.0 | 4.0 | 0.00 | 0.03 | 0.03 | 76 | 1004.2 |
| 20260506010402 | 75 | 16 | 2.0 | 3.0 | 0.00 | 0.03 | 0.03 | 75 | 1004.2 |
| 20260506005858 | 74 | 312 | 3.0 | 4.0 | 0.00 | 0.03 | 0.03 | 75 | 1004.3 |
| 20260506005355 | 74 | 297 | 4.0 | 4.0 | 0.00 | 0.03 | 0.03 | 76 | 1004.4 |
| 20260506004850 | 75 | 218 | 2.0 | 4.0 | 0.00 | 0.03 | 0.03 | 79 | 1004.2 |
| 20260506004349 | 76 | 229 | 5.0 | 6.0 | 0.00 | 0.03 | 0.03 | 85 | 1004.1 |
| 20260506003845 | 76 | 235 | 6.0 | 7.0 | 0.00 | 0.03 | 0.03 | 87 | 1004.1 |
| 20260506003341 | 76 | 280 | 5.0 | 7.0 | 0.00 | 0.03 | 0.03 | 88 | 1004.2 |
| 20260506002838 | 76 | 280 | 5.0 | 7.0 | 0.07 | 0.03 | 0.03 | 86 | 1004.3 |
| 20260506002334 | 77 | 268 | 3.0 | 4.0 | 0.12 | 0.03 | 0.03 | 84 | 1004.0 |
| 20260506001829 | 77 | 203 | 2.0 | 4.0 | 0.12 | 0.02 | 0.02 | 82 | 1003.7 |
| 20260506001327 | 79 | 184 | 5.0 | 10.0 | 0.07 | 0.01 | 0.01 | 78 | 1003.6 |
| 20260506000824 | 80 | 172 | 5.0 | 11.0 | 0.00 | 0.00 | 0.00 | 75 | 1003.2 |
| 20260506000323 | 80 | 181 | 5.0 | 9.0 | 0.00 | 0.00 | 0.00 | 74 | 1003.2 |
| 20260505235818 | 81 | 180 | 4.0 | 8.0 | 0.00 | 0.00 | 0.00 | 74 | 1003.0 |
| 20260505235316 | 81 | 165 | 6.0 | 11.0 | 0.00 | 0.00 | 0.00 | 73 | 1003.2 |
| 20260505234812 | 81 | 197 | 4.0 | 9.0 | 0.00 | 0.00 | 0.00 | 73 | 1003.3 |
| 20260505234310 | 81 | 158 | 4.0 | 11.0 | 0.00 | 0.00 | 0.00 | 72 | 1003.3 |
| 20260505233807 | 82 | 188 | 6.0 | 8.0 | 0.00 | 0.00 | 0.00 | 72 | 1003.2 |
| 20260505233305 | 82 | 160 | 6.0 | 10.0 | 0.00 | 0.00 | 0.00 | 71 | 1003.0 |
| 20260505232802 | 82 | 160 | 6.0 | 10.0 | 0.00 | 0.00 | 0.00 | 71 | 1003.3 |
| 20260505232259 | 82 | 198 | 6.0 | 11.0 | 0.00 | 0.00 | 0.00 | 71 | 1003.0 |
| 20260505231755 | 82 | 101 | 9.0 | 13.0 | 0.00 | 0.00 | 0.00 | 70 | 1002.9 |
| 20260505231254 | 82 | 176 | 10.0 | 13.0 | 0.00 | 0.00 | 0.00 | 70 | 1003.0 |
| 20260505230752 | 83 | 165 | 5.0 | 11.0 | 0.00 | 0.00 | 0.00 | 70 | 1002.9 |
| 20260505230249 | 84 | 161 | 11.0 | 13.0 | 0.00 | 0.00 | 0.00 | 68 | 1002.9 |
| 20260505225745 | 83 | 165 | 9.0 | 14.0 | 0.00 | 0.00 | 0.00 | 68 | 1002.9 |
| 20260505225243 | 83 | 151 | 7.0 | 9.0 | 0.00 | 0.00 | 0.00 | 69 | 1002.9 |
| 20260505224737 | 83 | 228 | 7.0 | 15.0 | 0.00 | 0.00 | 0.00 | 69 | 1002.9 |
| 20260505224235 | 84 | 173 | 9.0 | 15.0 | 0.00 | 0.00 | 0.00 | 68 | 1002.6 |
| 20260505223733 | 85 | 186 | 11.0 | 14.0 | 0.00 | 0.00 | 0.00 | 66 | 1002.5 |
| 20260505223229 | 85 | 186 | 9.0 | 15.0 | 0.00 | 0.00 | 0.00 | 66 | 1002.3 |
| 20260505222725 | 84 | 153 | 9.0 | 15.0 | 0.00 | 0.00 | 0.00 | 67 | 1002.5 |
| 20260505222221 | 85 | 147 | 7.0 | 11.0 | 0.00 | 0.00 | 0.00 | 67 | 1002.7 |
| 20260505221719 | 85 | 174 | 7.0 | 10.0 | 0.00 | 0.00 | 0.00 | 65 | 1002.5 |
| 20260505221215 | 86 | 155 | 10.0 | 13.0 | 0.00 | 0.00 | 0.00 | 65 | 1002.9 |
| 20260505220712 | 86 | 179 | 11.0 | 13.0 | 0.00 | 0.00 | 0.00 | 65 | 1002.7 |
| 20260505220210 | 86 | 183 | 6.0 | 13.0 | 0.00 | 0.00 | 0.00 | 66 | 1002.6 |
| 20260505215708 | 86 | 147 | 8.0 | 9.0 | 0.00 | 0.00 | 0.00 | 66 | 1002.9 |
| 20260505215205 | 85 | 194 | 9.0 | 11.0 | 0.00 | 0.00 | 0.00 | 65 | 1002.9 |
| 20260505214703 | 84 | 169 | 6.0 | 11.0 | 0.00 | 0.00 | 0.00 | 66 | 1002.7 |
| 20260505214200 | 85 | 187 | 4.0 | 11.0 | 0.00 | 0.00 | 0.00 | 66 | 1002.9 |
| 20260505213657 | 85 | 189 | 10.0 | 13.0 | 0.00 | 0.00 | 0.00 | 64 | 1002.7 |
| 20260505213154 | 85 | 182 | 9.0 | 11.0 | 0.00 | 0.00 | 0.00 | 65 | 1002.9 |
| 20260505212650 | 85 | 199 | 10.0 | 14.0 | 0.00 | 0.00 | 0.00 | 65 | 1003.2 |
| 20260505212148 | 85 | 164 | 9.0 | 13.0 | 0.00 | 0.00 | 0.00 | 65 | 1003.0 |
| 20260505211644 | 85 | 185 | 9.0 | 15.0 | 0.00 | 0.00 | 0.00 | 65 | 1002.9 |
| 20260505211142 | 85 | 186 | 7.0 | 14.0 | 0.00 | 0.00 | 0.00 | 65 | 1003.0 |
| 20260505210638 | 84 | 194 | 11.0 | 14.0 | 0.00 | 0.00 | 0.00 | 66 | 1003.1 |
| 20260505210135 | 84 | 188 | 9.0 | 13.0 | 0.00 | 0.00 | 0.00 | 67 | 1003.1 |
| 20260505205632 | 83 | 224 | 11.0 | 16.0 | 0.00 | 0.00 | 0.00 | 67 | 1003.3 |
| 20260505205131 | 84 | 214 | 8.0 | 15.0 | 0.00 | 0.00 | 0.00 | 67 | 1003.4 |
| 20260505204627 | 84 | 175 | 8.0 | 13.0 | 0.00 | 0.00 | 0.00 | 68 | 1003.4 |
| 20260505204125 | 84 | 196 | 10.0 | 14.0 | 0.00 | 0.00 | 0.00 | 67 | 1003.5 |
| 20260505203621 | 84 | 184 | 9.0 | 17.0 | 0.00 | 0.00 | 0.00 | 65 | 1003.5 |
| 20260505203119 | 84 | 196 | 12.0 | 16.0 | 0.00 | 0.00 | 0.00 | 66 | 1003.4 |
| 20260505202614 | 83 | 138 | 15.0 | 17.0 | 0.00 | 0.00 | 0.00 | 67 | 1003.4 |
| 20260505202111 | 83 | 177 | 9.0 | 16.0 | 0.00 | 0.00 | 0.00 | 67 | 1003.5 |
| 20260505201607 | 83 | 184 | 11.0 | 17.0 | 0.00 | 0.00 | 0.00 | 68 | 1003.5 |
| 20260505201105 | 83 | 193 | 11.0 | 13.0 | 0.00 | 0.00 | 0.00 | 69 | 1003.5 |
| 20260505200603 | 83 | 180 | 14.0 | 17.0 | 0.00 | 0.00 | 0.00 | 69 | 1003.6 |
| 20260505200059 | 83 | 215 | 11.0 | 15.0 | 0.00 | 0.00 | 0.00 | 69 | 1003.9 |
| 20260505195555 | 82 | 145 | 12.0 | 15.0 | 0.00 | 0.00 | 0.00 | 68 | 1003.6 |
| 20260505195053 | 82 | 193 | 10.0 | 15.0 | 0.00 | 0.00 | 0.00 | 68 | 1003.7 |
| 20260505194550 | 82 | 213 | 11.0 | 16.0 | 0.00 | 0.00 | 0.00 | 69 | 1003.6 |
| 20260505194046 | 82 | 194 | 12.0 | 17.0 | 0.00 | 0.00 | 0.00 | 68 | 1003.7 |
| 20260505193543 | 82 | 185 | 8.0 | 16.0 | 0.00 | 0.00 | 0.00 | 69 | 1003.7 |
| 20260505193040 | 82 | 197 | 13.0 | 16.0 | 0.00 | 0.00 | 0.00 | 69 | 1003.6 |
| 20260505192539 | 81 | 193 | 12.0 | 21.0 | 0.00 | 0.00 | 0.00 | 69 | 1003.6 |
| 20260505192036 | 81 | 173 | 10.0 | 15.0 | 0.00 | 0.00 | 0.00 | 71 | 1003.7 |
| 20260505191534 | 81 | 184 | 11.0 | 17.0 | 0.00 | 0.00 | 0.00 | 71 | 1003.7 |
| 20260505191032 | 81 | 187 | 12.0 | 18.0 | 0.00 | 0.00 | 0.00 | 70 | 1003.8 |
| 20260505190532 | 80 | 203 | 11.0 | 15.0 | 0.00 | 0.00 | 0.00 | 71 | 1003.8 |
| 20260505190028 | 80 | 157 | 9.0 | 17.0 | 0.00 | 0.00 | 0.00 | 71 | 1003.9 |
| 20260505185525 | 80 | 205 | 13.0 | 18.0 | 0.00 | 0.00 | 0.00 | 72 | 1004.0 |
| 20260505185021 | 80 | 192 | 13.0 | 17.0 | 0.00 | 0.00 | 0.00 | 72 | 1004.2 |
| 20260505184518 | 80 | 197 | 9.0 | 17.0 | 0.00 | 0.00 | 0.00 | 71 | 1004.0 |
| 20260505184015 | 80 | 199 | 14.0 | 17.0 | 0.00 | 0.00 | 0.00 | 71 | 1003.9 |
| 20260505183513 | 80 | 196 | 14.0 | 21.0 | 0.00 | 0.00 | 0.00 | 70 | 1003.9 |
| 20260505183010 | 81 | 195 | 10.0 | 16.0 | 0.00 | 0.00 | 0.00 | 70 | 1003.9 |
| 20260505182506 | 81 | 195 | 11.0 | 15.0 | 0.00 | 0.00 | 0.00 | 69 | 1004.1 |
| 20260505182002 | 80 | 211 | 9.0 | 13.0 | 0.00 | 0.00 | 0.00 | 71 | 1003.9 |
| 20260505181459 | 80 | 204 | 8.0 | 17.0 | 0.00 | 0.00 | 0.00 | 70 | 1003.8 |
| 20260505180956 | 81 | 147 | 13.0 | 19.0 | 0.00 | 0.00 | 0.00 | 69 | 1003.7 |
| 20260505180452 | 81 | 188 | 12.0 | 19.0 | 0.00 | 0.00 | 0.00 | 69 | 1003.8 |
| 20260505175949 | 80 | 198 | 9.0 | 21.0 | 0.00 | 0.00 | 0.00 | 71 | 1003.9 |
| 20260505175445 | 80 | 192 | 17.0 | 19.0 | 0.00 | 0.00 | 0.00 | 70 | 1003.7 |
| 20260505174942 | 80 | 159 | 11.0 | 19.0 | 0.00 | 0.00 | 0.00 | 70 | 1003.9 |
| 20260505174439 | 80 | 185 | 14.0 | 19.0 | 0.00 | 0.00 | 0.00 | 71 | 1003.9 |
| 20260505173935 | 80 | 215 | 13.0 | 17.0 | 0.00 | 0.00 | 0.00 | 71 | 1003.9 |
| 20260505173432 | 79 | 188 | 14.0 | 21.0 | 0.00 | 0.00 | 0.00 | 71 | 1004.0 |
| 20260505172929 | 79 | 190 | 11.0 | 17.0 | 0.00 | 0.00 | 0.00 | 72 | 1004.3 |
| 20260505172427 | 78 | 193 | 12.0 | 19.0 | 0.00 | 0.00 | 0.00 | 72 | 1004.1 |
| 20260505171926 | 78 | 213 | 10.0 | 21.0 | 0.00 | 0.00 | 0.00 | 72 | 1004.2 |
| 20260505171424 | 79 | 162 | 14.0 | 17.0 | 0.00 | 0.00 | 0.00 | 72 | 1004.2 |
| 20260505170920 | 79 | 180 | 14.0 | 23.0 | 0.00 | 0.00 | 0.00 | 70 | 1004.1 |
| 20260505170417 | 79 | 189 | 12.0 | 18.0 | 0.00 | 0.00 | 0.00 | 71 | 1003.9 |
| 20260505165912 | 78 | 180 | 15.0 | 19.0 | 0.00 | 0.00 | 0.00 | 72 | 1004.3 |
| 20260505165408 | 78 | 182 | 15.0 | 18.0 | 0.00 | 0.00 | 0.00 | 73 | 1004.4 |
| 20260505164903 | 78 | 205 | 15.0 | 18.0 | 0.00 | 0.00 | 0.00 | 73 | 1004.4 |
| 20260505164400 | 77 | 185 | 10.0 | 19.0 | 0.00 | 0.00 | 0.00 | 74 | 1004.3 |
| 20260505163859 | 77 | 200 | 12.0 | 24.0 | 0.00 | 0.00 | 0.00 | 74 | 1004.3 |
| 20260505163357 | 77 | 211 | 12.0 | 21.0 | 0.00 | 0.00 | 0.00 | 74 | 1004.0 |
| 20260505162855 | 77 | 189 | 13.0 | 19.0 | 0.00 | 0.00 | 0.00 | 75 | 1003.9 |
| 20260505162351 | 77 | 213 | 14.0 | 17.0 | 0.00 | 0.00 | 0.00 | 75 | 1004.0 |
| 20260505161848 | 77 | 207 | 14.0 | 23.0 | 0.00 | 0.00 | 0.00 | 75 | 1003.8 |
| 20260505161345 | 76 | 172 | 13.0 | 17.0 | 0.00 | 0.00 | 0.00 | 76 | 1003.7 |
| 20260505160842 | 76 | 134 | 19.0 | 24.0 | 0.00 | 0.00 | 0.00 | 76 | 1003.8 |
| 20260505160341 | 76 | 187 | 13.0 | 19.0 | 0.00 | 0.00 | 0.00 | 77 | 1003.7 |
| 20260505153320 | 75 | 207 | 11.0 | 16.0 | 0.00 | 0.00 | 0.00 | 78 | 1004.0 |
| 20260505152817 | 74 | 186 | 9.0 | 17.0 | 0.00 | 0.00 | 0.00 | 79 | 1004.0 |
| 20260505152314 | 74 | 147 | 11.0 | 16.0 | 0.00 | 0.00 | 0.00 | 79 | 1004.2 |
| 20260505151813 | 74 | 208 | 9.0 | 17.0 | 0.00 | 0.00 | 0.00 | 79 | 1004.0 |
| 20260505151310 | 74 | 215 | 13.0 | 18.0 | 0.00 | 0.00 | 0.00 | 79 | 1004.0 |
| 20260505150807 | 75 | 203 | 16.0 | 18.0 | 0.00 | 0.00 | 0.00 | 79 | 1004.1 |
| 20260505150305 | 74 | 201 | 12.0 | 17.0 | 0.00 | 0.00 | 0.00 | 80 | 1004.1 |
| 20260505140229 | 72 | 196 | 9.0 | 16.0 | 0.00 | 0.00 | 0.00 | 84 | 1003.9 |
| 20260505130153 | 70 | 181 | 8.0 | 13.0 | 0.00 | 0.00 | 0.00 | 85 | 1003.9 |
| 20260505124642 | 70 | 189 | 11.0 | 14.0 | 0.00 | 0.00 | 0.00 | 86 | 1003.6 |
| 20260505124139 | 70 | 179 | 10.0 | 14.0 | 0.00 | 0.00 | 0.00 | 86 | 1003.7 |
| 20260505123635 | 70 | 150 | 7.0 | 13.0 | 0.00 | 0.00 | 0.00 | 86 | 1003.7 |
| 20260505123132 | 70 | 190 | 8.0 | 14.0 | 0.00 | 0.00 | 0.00 | 85 | 1003.8 |
| 20260505122629 | 70 | 165 | 10.0 | 14.0 | 0.00 | 0.00 | 0.00 | 85 | 1003.7 |
| 20260505122126 | 70 | 200 | 7.0 | 13.0 | 0.00 | 0.00 | 0.00 | 85 | 1003.5 |
| 20260505121622 | 70 | 174 | 8.0 | 15.0 | 0.00 | 0.00 | 0.00 | 85 | 1003.3 |
| 20260505121119 | 70 | 194 | 10.0 | 14.0 | 0.00 | 0.00 | 0.00 | 85 | 1003.4 |
| 20260505120615 | 70 | 162 | 14.0 | 17.0 | 0.00 | 0.00 | 0.00 | 85 | 1003.2 |
| 20260505120112 | 70 | 143 | 7.0 | 17.0 | 0.00 | 0.00 | 0.00 | 86 | 1003.3 |
| 20260505115606 | 70 | 162 | 7.0 | 15.0 | 0.00 | 0.00 | 0.00 | 86 | 1003.4 |
| 20260505115104 | 69 | 180 | 11.0 | 15.0 | 0.00 | 0.00 | 0.00 | 86 | 1003.5 |
| 20260505114600 | 69 | 202 | 6.0 | 13.0 | 0.00 | 0.00 | 0.00 | 85 | 1003.2 |
| 20260505114056 | 69 | 153 | 8.0 | 13.0 | 0.00 | 0.00 | 0.00 | 85 | 1003.2 |
| 20260505113553 | 69 | 180 | 9.0 | 15.0 | 0.00 | 0.00 | 0.00 | 85 | 1003.1 |
| 20260505113050 | 69 | 178 | 9.0 | 14.0 | 0.00 | 0.00 | 0.00 | 86 | 1003.0 |
| 20260505112546 | 69 | 200 | 7.0 | 19.0 | 0.00 | 0.00 | 0.00 | 86 | 1003.2 |
| 20260505112045 | 69 | 193 | 10.0 | 14.0 | 0.00 | 0.00 | 0.00 | 86 | 1002.9 |
| 20260505111538 | 69 | 149 | 7.0 | 14.0 | 0.00 | 0.00 | 0.00 | 86 | 1002.7 |
| 20260505111035 | 69 | 178 | 10.0 | 13.0 | 0.00 | 0.00 | 0.00 | 85 | 1002.5 |
| 20260505110531 | 69 | 165 | 11.0 | 17.0 | 0.00 | 0.00 | 0.00 | 85 | 1002.8 |
| 20260505102004 | 70 | 170 | 9.0 | 24.0 | 0.00 | 0.00 | 0.00 | 85 | 1003.2 |
| 20260505101501 | 70 | 202 | 11.0 | 17.0 | 0.00 | 0.00 | 0.00 | 85 | 1002.9 |
| 20260505100958 | 70 | 156 | 9.0 | 14.0 | 0.00 | 0.00 | 0.00 | 85 | 1003.0 |
| 20260505100455 | 70 | 165 | 14.0 | 16.0 | 0.00 | 0.00 | 0.00 | 84 | 1003.3 |
| 20260505095951 | 70 | 164 | 10.0 | 17.0 | 0.00 | 0.00 | 0.00 | 84 | 1003.3 |
| 20260505095448 | 70 | 188 | 14.0 | 16.0 | 0.00 | 0.00 | 0.00 | 84 | 1003.3 |
| 20260505094944 | 70 | 192 | 12.0 | 18.0 | 0.00 | 0.00 | 0.00 | 84 | 1003.4 |
| 20260505094441 | 70 | 169 | 14.0 | 17.0 | 0.00 | 0.00 | 0.00 | 84 | 1003.3 |
| 20260505093937 | 70 | 178 | 9.0 | 16.0 | 0.00 | 0.00 | 0.00 | 85 | 1003.6 |
| 20260505093434 | 70 | 221 | 5.0 | 17.0 | 0.00 | 0.00 | 0.00 | 85 | 1003.6 |
| 20260505092931 | 70 | 221 | 9.0 | 13.0 | 0.00 | 0.00 | 0.00 | 84 | 1003.7 |
| 20260505092429 | 70 | 173 | 10.0 | 15.0 | 0.00 | 0.00 | 0.00 | 85 | 1003.4 |
| 20260505091926 | 70 | 186 | 12.0 | 17.0 | 0.00 | 0.00 | 0.00 | 85 | 1003.5 |
| 20260505091424 | 70 | 183 | 7.0 | 13.0 | 0.00 | 0.00 | 0.00 | 84 | 1003.4 |
| 20260505090921 | 70 | 173 | 10.0 | 18.0 | 0.00 | 0.00 | 0.00 | 85 | 1003.5 |
| 20260505090420 | 70 | 145 | 9.0 | 15.0 | 0.00 | 0.00 | 0.00 | 85 | 1003.6 |
| 20260505085917 | 70 | 188 | 12.0 | 16.0 | 0.00 | 0.00 | 0.00 | 84 | 1003.4 |
| 20260505085415 | 70 | 200 | 11.0 | 17.0 | 0.00 | 0.00 | 0.00 | 84 | 1003.3 |
| 20260505084912 | 70 | 177 | 12.0 | 17.0 | 0.00 | 0.00 | 0.00 | 84 | 1003.5 |
| 20260505084410 | 69 | 199 | 10.0 | 19.0 | 0.00 | 0.00 | 0.00 | 85 | 1003.4 |
| 20260505083908 | 69 | 165 | 13.0 | 15.0 | 0.00 | 0.00 | 0.00 | 85 | 1003.5 |
| 20260505083405 | 69 | 122 | 8.0 | 14.0 | 0.00 | 0.00 | 0.00 | 85 | 1003.4 |
| 20260505082901 | 69 | 182 | 9.0 | 18.0 | 0.00 | 0.00 | 0.00 | 85 | 1003.3 |
| 20260505082357 | 69 | 201 | 14.0 | 17.0 | 0.00 | 0.00 | 0.00 | 85 | 1003.4 |
| 20260505081854 | 69 | 177 | 10.0 | 16.0 | 0.00 | 0.00 | 0.00 | 85 | 1003.5 |
| 20260505081351 | 69 | 177 | 13.0 | 15.0 | 0.00 | 0.00 | 0.00 | 85 | 1003.4 |
| 20260505080848 | 69 | 173 | 12.0 | 15.0 | 0.00 | 0.00 | 0.00 | 85 | 1003.5 |
| 20260505080344 | 69 | 145 | 8.0 | 14.0 | 0.00 | 0.00 | 0.00 | 84 | 1003.6 |